Change the Weather History Date:

Sunday, August 4, 2013

  Actual Average Record
Temperature  
Mean Temperature 79 °F -  
Max Temperature 97 °F 99 °F 112 °F (1998)
Min Temperature 60 °F 65 °F 58 °F (1992)
Degree Days  
Heating Degree Days 0    
Cooling Degree Days 14    
Growing Degree Days 28 (Base 50)    
Moisture  
Dew Point 42 °F    
Average Humidity 37    
Maximum Humidity 64    
Minimum Humidity 9    
Precipitation  
Precipitation 0.00 in 0.00 in 0.00 in (2015)
Month to date precipitation 0.00 0.01  
Year to date precipitation 9.30 20.96  
Since 1 July precipitation T 0.10  
Sea Level Pressure  
Sea Level Pressure 29.88 in    
Wind  
Wind Speed 3 mph (South)    
Max Wind Speed 15 mph    
Max Gust Speed 21 mph    
Visibility 10 miles    
Events      
T = Trace of Precipitation, MM = Missing Value Source: NWS Daily Summary

Daily Weather History Graph

Daily Weather History Graph

Search for Another Location

Airport or City:

Trip Planner

Search our weather history database for the weather conditions in past years. The results will help you decide how hot, cold, wet, or windy it might be!

Date:

Astronomy

Aug. 04, 2013 Rise Set
Actual Time 6:09 AM PDT 8:20 PM PDT
Civil Twilight 5:39 AM PDT 8:50 PM PDT
Nautical Twilight 5:02 AM PDT 9:27 PM PDT
Astronomical Twilight 4:21 AM PDT 10:08 PM PDT
Moon 4:15 AM PDT (8/4) 6:47 PM PDT (8/4)
Length of Visible Light 15h 11m
Length of Day
14h 10m
Waning Crescent, 4% of the Moon is Illuminated
Aug 4
Waning Crescent
Aug 6
New
Aug 14
First Quarter
Aug 20
Full
Aug 28
Last Quarter

Hourly Weather History & Observations

Time (PDT) Temp. Dew Point Humidity Pressure Visibility Wind Dir Wind Speed Gust Speed Precip Events Conditions
12:53 AM 68.0 °F 46.0 °F 45% 29.88 in 10.0 mi Calm Calm - N/A   Clear
1:53 AM 66.0 °F 46.9 °F 50% 29.89 in 10.0 mi Calm Calm - N/A   Clear
2:53 AM 64.9 °F 46.0 °F 50% 29.89 in 10.0 mi Calm Calm - N/A   Clear
3:53 AM 64.9 °F 46.0 °F 50% 29.89 in 10.0 mi NNW 4.6 mph - N/A   Clear
4:53 AM 63.0 °F 46.9 °F 56% 29.90 in 10.0 mi NNW 3.5 mph - N/A   Clear
5:53 AM 61.0 °F 48.0 °F 62% 29.91 in 10.0 mi Calm Calm - N/A   Clear
6:53 AM 62.1 °F 48.0 °F 60% 29.92 in 10.0 mi Calm Calm - N/A   Clear
7:53 AM 69.1 °F 48.0 °F 47% 29.94 in 10.0 mi Calm Calm - N/A   Clear
8:53 AM 75.0 °F 46.9 °F 37% 29.94 in 10.0 mi Calm Calm - N/A   Clear
9:53 AM 80.1 °F 45.0 °F 29% 29.92 in 10.0 mi Calm Calm - N/A   Clear
10:53 AM 84.0 °F 45.0 °F 25% 29.91 in 10.0 mi Calm Calm - N/A   Clear
11:53 AM 87.1 °F 46.0 °F 24% 29.91 in 10.0 mi Calm Calm - N/A   Clear
12:53 PM 90.0 °F 43.0 °F 19% 29.89 in 10.0 mi SSE 5.8 mph - N/A   Clear
1:53 PM 93.0 °F 33.1 °F 12% 29.87 in 10.0 mi Variable 3.5 mph - N/A   Clear
2:53 PM 95.0 °F 37.0 °F 13% 29.85 in 10.0 mi South 8.1 mph - N/A   Clear
3:53 PM 96.1 °F 28.9 °F 9% 29.84 in 10.0 mi SSE 8.1 mph 18.4 mph N/A   Clear
4:53 PM 97.0 °F 33.1 °F 11% 29.82 in 10.0 mi SSE 15.0 mph 20.7 mph N/A   Clear
5:53 PM 96.1 °F 34.0 °F 11% 29.81 in 10.0 mi South 13.8 mph - N/A   Clear
6:53 PM 93.0 °F 33.1 °F 12% 29.81 in 10.0 mi SSW 10.4 mph - N/A   Clear
7:53 PM 90.0 °F 33.1 °F 13% 29.82 in 10.0 mi SSW 8.1 mph - N/A   Clear
8:53 PM 82.9 °F 37.9 °F 20% 29.85 in 10.0 mi South 4.6 mph - N/A   Clear
9:53 PM 78.1 °F 41.0 °F 27% 29.88 in 10.0 mi Calm Calm - N/A   Clear
10:53 PM 73.0 °F 42.1 °F 33% 29.90 in 10.0 mi NNE 3.5 mph - N/A   Clear
11:53 PM 71.1 °F 42.1 °F 35% 29.91 in 10.0 mi Calm Calm - N/A   Clear